Zurück zum Katalog

COSMOS 1275 DEB

AktivPO
NORAD 42158·DEBRIS·🇷🇺 Russia

Gestartet Jun 4, 1981 von Plesetsk Cosmodrome

Loading…

Nächste Überflüge (nächste 24 Stunden)

TLE

AktuellSource: Space-Track

Epoche: Sep 13, 2026, 08:19 UTC

1 42158U 81053RW  26256.34687677  .00000991  00000-0  86995-3 0  9995
2 42158  83.0046 116.2102 0099426 159.3278 326.7424 13.82305931643579

Verfolge COSMOS 1275 DEB in Echtzeit mit AllMySat

Download on the App Store